[[{"header":{"parameterUnit":"m.s-1","parameterCategory":2,"la1":30.2991,"la2":30.254,"lo1":-89.0895,"lo2":-89.0444,"dy":0.0017,"dx":0.0017,"nx":28,"ny":28,"refTime":"2024-06-15T09:00:00:Z","depth":"0","parameterNumber":2,"parameterNumberName":"U-component_of_CURRENTS"},"data":[0,0,0,0,0,0,0,0,0,0,0,0,0,0,0,0,0,0,0,0,0,0,0,0,0,0,0,0,0,0,0,0,0,0,0,0,0,0,0,0,0,0,0,0,0,0,0,0,0,0,0,0,0,0,0,0,0,0,0.1906,0.1906,0,0.1964,0.1965,0.1966,0.2008,0.2009,0.2009,0.201,0.2082,0.2084,0.2085,0,0,0,0,0,0,0,0,0,0,0,0,0,0.1824,0.1825,0.1906,0.1907,0.1907,0.1964,0.1965,0.1966,0.2008,0.2009,0.2009,0.201,0.2082,0.2083,0.2085,0,0,0,0,0,0,0,0,0,0,0,0,0,0.1868,0.1825,0.1906,0.1936,0.1939,0.1964,0.1965,0.1966,0.2008,0.2009,0.2009,0.201,0.2081,0.2083,0.2086,0.2087,0,0,0.2093,0.2094,0,0,0,0,0,0,0,0,0.1865,0.1871,0.1931,0.1934,0.1938,0.198,0.1963,0.2008,0.2008,0.1981,0.201,0.201,0.2049,0.2054,0.2063,0.209,0.2094,0.2093,0.2094,0.2095,0.2096,0,0,0,0,0,0,0,0.1862,0.1868,0.1928,0.1931,0.1936,0.1944,0.1951,0.1971,0.2011,0.1984,0.1987,0.1994,0.2051,0.206,0.2065,0.2095,0.2093,0.2095,0.2096,0.2097,0.2129,0.2128,0,0,0,0,0,0,0.1856,0.1866,0.1926,0.193,0.1903,0.1945,0.1953,0.1965,0.201,0.2018,0.1994,0.1996,0.2056,0.2062,0.2068,0.2073,0.2095,0.2097,0.2099,0.2129,0.2129,0.2128,0,0,0,0,0,0,0.1854,0.1861,0.1924,0.1899,0.1908,0.1946,0.196,0.1966,0.1976,0.2018,0.2026,0.1997,0.2057,0.2064,0.2084,0.2076,0.2098,0.2101,0.213,0.2129,0.2128,0.2084,0,0,0,0,0,0,0.1852,0.186,0.1863,0.1899,0.1909,0.1937,0.1959,0.1967,0.198,0.1984,0.2023,0.2031,0.2058,0.208,0.2086,0.208,0.2102,0.2131,0.213,0.2129,0.2086,0.2081,0.2077,0,0,0,0,0,0.1849,0.1852,0.1863,0.187,0.1913,0.1937,0.1942,0.1971,0.1979,0.1981,0.2007,0.2029,0.2078,0.2081,0.2088,0.2083,0.2131,0.213,0.2129,0.2088,0.2082,0.2078,0,0,0,0,0,0,0.1815,0.1858,0.187,0.1886,0.1907,0.1944,0.1948,0.1965,0.1986,0.1988,0.2025,0.2034,0.205,0.2069,0.2072,0.2088,0.2107,0.2107,0.2073,0.2068,0.2064,0.2071,0.2104,0,0,0,0,0,0.1809,0.1824,0.186,0.187,0.188,0.1911,0.1922,0.194,0.1966,0.1976,0.2002,0.2027,0.2049,0.206,0.2084,0.2091,0.2124,0.2091,0.2087,0.2083,0.2093,0.2121,0.2121,0.2124,0.2124,0.2124,0,0,0.1797,0.1823,0.183,0.1864,0.1882,0.1895,0.1919,0.1933,0.1941,0.198,0.1993,0.2017,0.2049,0.2061,0.2068,0.2076,0.2101,0.2082,0.2078,0.209,0.212,0.212,0.212,0.2123,0.2123,0.2124,0,0,0.1784,0.1804,0.1813,0.1831,0.1859,0.1877,0.1878,0.191,0.1922,0.1936,0.1966,0.1983,0.2014,0.2036,0.2051,0.2037,0.208,0.204,0.2023,0.205,0.2051,0.2051,0.2099,0.2105,0.2034,0.2034,0.2034,0,0.1767,0.1788,0.1816,0.1829,0.184,0.1866,0.1873,0.1886,0.1918,0.1928,0.1935,0.1982,0.2004,0.2026,0.2021,0.2029,0.206,0.2039,0.2046,0.2047,0.2049,0.2098,0.2104,0.2032,0.2032,0.2032,0.2033,0,0.1766,0.1779,0.1783,0.181,0.1822,0.183,0.1855,0.1864,0.1876,0.1894,0.1916,0.1946,0.1979,0.1979,0.1998,0.2015,0.204,0.2039,0.2059,0.2046,0.2098,0.2106,0.2029,0.2029,0.203,0.2031,0,0,0.1732,0.1774,0.1774,0.1783,0.1812,0.1821,0.1831,0.185,0.1859,0.188,0.1894,0.1922,0.1943,0.1962,0.1984,0.2001,0.2034,0.2022,0.2024,0.2072,0.2114,0.2114,0.2122,0.2034,0.2035,0.2035,0.2149,0,0.1718,0.1737,0.1762,0.1767,0.1775,0.1802,0.1811,0.183,0.1848,0.1866,0.1893,0.1917,0.1934,0.1951,0.197,0.2023,0.2051,0.2005,0.2119,0.2123,0.2125,0.213,0.208,0.2175,0.2157,0.2158,0.2159,0,0.1707,0.1721,0.1728,0.1752,0.1757,0.1761,0.1781,0.1795,0.1827,0.1845,0.1875,0.1905,0.1947,0.1951,0.2043,0.2015,0.2065,0.21,0.2105,0.2128,0.2136,0.2185,0.219,0.2062,0.2171,0.217,0.217,0,0.1668,0.1694,0.1696,0.1704,0.1735,0.1738,0.1752,0.1784,0.1794,0.1835,0.1848,0.1907,0.1934,0.2003,0.2077,0.2069,0.2173,0.2172,0.2224,0.2226,0.2219,0.2218,0.2117,0.2235,0.2235,0.2235,0.2235,0,0.1645,0.1644,0.1676,0.1675,0.1673,0.1707,0.1709,0.1736,0.1769,0.1781,0.1834,0.1858,0.1945,0.2011,0.2085,0.2182,0.2187,0.2235,0.2253,0.2202,0.2198,0.2116,0.203,0.2239,0.2238,0.2237,0.2237,0,0.1604,0.1625,0.1627,0.1652,0.1655,0.1654,0.1678,0.1684,0.1723,0.1743,0.1757,0.183,0.1927,0.2019,0.2136,0.2188,0.2212,0.2312,0.2256,0.2265,0.2193,0.2107,0.2045,0.2008,0.2404,0.2405,0.2405,0,0.1592,0.1589,0.1602,0.16,0.1607,0.1613,0.1616,0.1654,0.1665,0.1726,0.1733,0.1825,0.1895,0.207,0.2186,0.2331,0.2222,0.2347,0.2315,0.2184,0.2103,0.2026,0.1993,0.23,0.23,0.23,0.2299,0,0.1574,0.1574,0.1578,0.1575,0.1571,0.156,0.157,0.1569,0.1617,0.1648,0.1707,0.177,0.1939,0.2049,0.2214,0.2306,0.2202,0.2346,0.2217,0.2017,0.1921,0.1895,0.2241,0.2297,0.2297,0.2297,0.2297,0.2297,0.1566,0.1564,0.1575,0.1562,0.155,0.1522,0.1497,0.1519,0.1538,0.1574,0.1658,0.1734,0.1878,0.2116,0.2191,0.2225,0.2204,0.2172,0.2089,0.2032,0.1944,0.2292,0.2354,0.2354,0.2355,0.2355,0.2356,0,0.1578,0.1578,0.1569,0.1548,0.1512,0.151,0.1479,0.145,0.1459,0.1517,0.1579,0.1695,0.1805,0.1928,0.2017,0.1949,0.1945,0.1869,0.1719,0.1712,0.2034,0.1974,0.1946,0.1946,0.1946,0.1946,0.1946,0.1946,0.1592,0.1592,0.1579,0.1527,0.1496,0.1432,0.1398,0.1365,0.1377,0.1396,0.1441,0.1509,0.1583,0.1591,0.1571,0.1601,0.1451,0.141,0.1377,0.1542,0.1562,0.1582,0.1505,0.1379,0.1378,0.1065,0.1061,0.1058]},{"header":{"parameterUnit":"m.s-1","parameterCategory":2,"la1":30.2991,"la2":30.254,"lo1":-89.0895,"lo2":-89.0444,"dy":0.0017,"dx":0.0017,"nx":28,"ny":28,"refTime":"2024-06-15T09:00:00:Z","depth":"0","parameterNumber":3,"parameterNumberName":"V-component_of_CURRENTS"},"data":[0,0,0,0,0,0,0,0,0,0,0,0,0,0,0,0,0,0,0,0,0,0,0,0,0,0,0,0,0,0,0,0,0,0,0,0,0,0,0,0,0,0,0,0,0,0,0,0,0,0,0,0,0,0,0,0,0,0,-0.051,-0.051,0,-0.0548,-0.0549,-0.0549,-0.0572,-0.0572,-0.0572,-0.0572,-0.0621,-0.0622,-0.0623,0,0,0,0,0,0,0,0,0,0,0,0,0,-0.0436,-0.0437,-0.051,-0.051,-0.0511,-0.0548,-0.0549,-0.055,-0.0572,-0.0572,-0.0572,-0.0572,-0.062,-0.0622,-0.0624,0,0,0,0,0,0,0,0,0,0,0,0,0,-0.0471,-0.0438,-0.051,-0.0526,-0.0528,-0.0548,-0.0549,-0.055,-0.0572,-0.0572,-0.0572,-0.0572,-0.062,-0.0622,-0.0624,-0.0634,0,0,-0.0629,-0.063,0,0,0,0,0,0,0,0,-0.0469,-0.0474,-0.0523,-0.0525,-0.0527,-0.0555,-0.0541,-0.0578,-0.0572,-0.0556,-0.0572,-0.0572,-0.0599,-0.0603,-0.0611,-0.0636,-0.0638,-0.063,-0.0631,-0.0632,-0.0632,0,0,0,0,0,0,0,-0.0467,-0.0472,-0.0526,-0.0524,-0.0526,-0.0525,-0.053,-0.0548,-0.0577,-0.0557,-0.0559,-0.0562,-0.0601,-0.0609,-0.0612,-0.0639,-0.063,-0.0631,-0.0632,-0.0633,-0.0668,-0.0668,0,0,0,0,0,0,-0.0462,-0.047,-0.0524,-0.0527,-0.0497,-0.0526,-0.0532,-0.0546,-0.0577,-0.0581,-0.0562,-0.0563,-0.0606,-0.061,-0.0614,-0.0613,-0.0632,-0.0633,-0.0634,-0.0669,-0.0668,-0.0668,0,0,0,0,0,0,-0.0461,-0.0467,-0.0523,-0.0498,-0.0505,-0.0527,-0.0543,-0.0547,-0.0555,-0.0581,-0.0585,-0.0566,-0.0606,-0.0611,-0.0624,-0.0615,-0.0634,-0.0636,-0.0669,-0.0669,-0.0668,-0.0621,0,0,0,0,0,0,-0.0459,-0.0467,-0.0473,-0.0498,-0.0506,-0.0531,-0.0543,-0.0548,-0.0557,-0.0558,-0.0585,-0.059,-0.0606,-0.0621,-0.0625,-0.0618,-0.0637,-0.0669,-0.0669,-0.0668,-0.0622,-0.0619,-0.0615,0,0,0,0,0,-0.0456,-0.0465,-0.0473,-0.0479,-0.0516,-0.0531,-0.0535,-0.0551,-0.0557,-0.0558,-0.0573,-0.0589,-0.0622,-0.0622,-0.0628,-0.0621,-0.0669,-0.0669,-0.0668,-0.0624,-0.0619,-0.0616,0,0,0,0,0,0,-0.0434,-0.0469,-0.0478,-0.0497,-0.0511,-0.0535,-0.0539,-0.0549,-0.0563,-0.0564,-0.0587,-0.0593,-0.0601,-0.0619,-0.0618,-0.0631,-0.0648,-0.0649,-0.0612,-0.0608,-0.0605,-0.0593,-0.0639,0,0,0,0,0,-0.0433,-0.0451,-0.0476,-0.0489,-0.0497,-0.0517,-0.0524,-0.0534,-0.055,-0.0557,-0.0574,-0.0591,-0.0604,-0.0612,-0.0628,-0.0635,-0.0638,-0.0635,-0.0632,-0.0629,-0.0623,-0.0618,-0.0613,-0.0667,-0.0667,-0.0667,0,0,-0.0427,-0.0448,-0.0458,-0.0486,-0.0499,-0.0504,-0.0522,-0.0532,-0.0532,-0.056,-0.0565,-0.0581,-0.0604,-0.0609,-0.0614,-0.0622,-0.0613,-0.0628,-0.0625,-0.0621,-0.0617,-0.0611,-0.0607,-0.0666,-0.0666,-0.0666,0,0,-0.0421,-0.0444,-0.0454,-0.0465,-0.0483,-0.0494,-0.0495,-0.0516,-0.0522,-0.0528,-0.0546,-0.0552,-0.0578,-0.0586,-0.0594,-0.0583,-0.0595,-0.0593,-0.0564,-0.0559,-0.0554,-0.055,-0.0536,-0.0531,-0.059,-0.059,-0.059,0,-0.0407,-0.043,-0.0456,-0.0463,-0.0467,-0.0487,-0.0487,-0.0496,-0.0514,-0.0513,-0.0524,-0.0543,-0.0563,-0.0561,-0.0558,-0.0573,-0.0571,-0.0576,-0.0553,-0.0549,-0.0546,-0.0532,-0.0527,-0.0588,-0.0588,-0.0588,-0.0589,0,-0.041,-0.0421,-0.0426,-0.0443,-0.045,-0.0453,-0.0466,-0.0469,-0.0476,-0.0481,-0.048,-0.0501,-0.051,-0.0518,-0.0536,-0.0523,-0.0529,-0.0548,-0.0559,-0.0537,-0.0524,-0.052,-0.0584,-0.0585,-0.0586,-0.0587,0,0,-0.0384,-0.0421,-0.0418,-0.042,-0.0438,-0.044,-0.044,-0.0441,-0.043,-0.0442,-0.0426,-0.0447,-0.0453,-0.0464,-0.0483,-0.048,-0.0454,-0.0502,-0.0503,-0.048,-0.0433,-0.0415,-0.0409,-0.0469,-0.0468,-0.0468,-0.0429,0,-0.0371,-0.0383,-0.0403,-0.0395,-0.0398,-0.0412,-0.0406,-0.0407,-0.0409,-0.0398,-0.0408,-0.0404,-0.0434,-0.0434,-0.0434,-0.0453,-0.0442,-0.0462,-0.0465,-0.0465,-0.0446,-0.0403,-0.0343,-0.0302,-0.0425,-0.0424,-0.0424,0,-0.0357,-0.0369,-0.0369,-0.0372,-0.0372,-0.0368,-0.0357,-0.0355,-0.0348,-0.0347,-0.0342,-0.0353,-0.0349,-0.0378,-0.0381,-0.0393,-0.0406,-0.0418,-0.0417,-0.0414,-0.0439,-0.0348,-0.029,-0.0295,-0.0417,-0.0418,-0.0418,0,-0.0323,-0.0335,-0.0335,-0.0337,-0.0348,-0.0341,-0.0341,-0.0336,-0.0325,-0.0311,-0.0294,-0.0299,-0.0291,-0.0311,-0.0337,-0.0359,-0.0333,-0.0369,-0.036,-0.0359,-0.0315,-0.0311,-0.0255,-0.0361,-0.0361,-0.0361,-0.0361,0,-0.0297,-0.0286,-0.0319,-0.0315,-0.0299,-0.0315,-0.0291,-0.0289,-0.0277,-0.0249,-0.0264,-0.0234,-0.0275,-0.0269,-0.0305,-0.0307,-0.0307,-0.0338,-0.0342,-0.0296,-0.0291,-0.0302,-0.0332,-0.0359,-0.036,-0.036,-0.036,0,-0.0248,-0.0273,-0.0268,-0.0284,-0.0284,-0.027,-0.0264,-0.0246,-0.0237,-0.02,-0.0191,-0.0178,-0.0164,-0.0196,-0.0216,-0.0254,-0.0254,-0.027,-0.0206,-0.0204,-0.0217,-0.0247,-0.0213,-0.0181,-0.0254,-0.0253,-0.0253,0,-0.022,-0.022,-0.0241,-0.0239,-0.0244,-0.0233,-0.0223,-0.0222,-0.0203,-0.0158,-0.0131,-0.0103,-0.0064,-0.0075,-0.0127,-0.016,-0.0193,-0.0147,-0.0185,-0.0188,-0.0226,-0.0254,-0.0231,-0.0103,-0.0101,-0.01,-0.0098,0,-0.0165,-0.0181,-0.0186,-0.0195,-0.019,-0.0176,-0.0163,-0.014,-0.0126,-0.0083,-0.0017,0.0023,0.0027,0.0041,-0.0009,-0.0046,-0.0125,-0.0119,-0.0134,-0.0103,-0.0118,-0.0098,-0.0159,-0.0085,-0.0087,-0.0088,-0.0088,-0.0089,-0.012,-0.0118,-0.0143,-0.0144,-0.014,-0.0117,-0.0086,-0.0058,-0.0003,0.0083,0.0087,0.0191,0.018,0.0134,0.0073,0.0012,-0.0031,-0.0012,-0.0047,-0.0074,-0.0042,-0.0071,-0.0004,-0.0005,-0.0006,-0.0006,-0.0007,0,-0.0076,-0.0088,-0.009,-0.0096,-0.0082,-0.0088,-0.0044,0.0006,0.0093,0.0188,0.0262,0.0358,0.0348,0.0283,0.0179,0.0103,0.0076,0.0065,0.0048,0.0069,0.0048,0.0056,0.0152,0.0152,0.0152,0.0152,0.0152,0.0152,-0.0051,-0.0054,-0.0068,-0.0045,-0.004,0.0007,0.0044,0.0131,0.0216,0.0373,0.048,0.054,0.0513,0.0301,0.0174,0.014,0.0111,0.0091,0.0062,0.0043,0.0033,0.0024,0.0026,0.0114,0.0114,0.0136,0.0136,0.0136]}],[{"header":{"parameterUnit":"m.s-1","parameterCategory":2,"la1":30.2991,"la2":30.254,"lo1":-89.0895,"lo2":-89.0444,"dy":0.0017,"dx":0.0017,"nx":28,"ny":28,"refTime":"2024-06-15T09:00:00:Z","depth":"2","parameterNumber":2,"parameterNumberName":"U-component_of_CURRENTS"},"data":[0,0,0,0,0,0,0,0,0,0,0,0,0,0,0,0,0,0,0,0,0,0,0,0,0,0,0,0,0,0,0,0,0,0,0,0,0,0,0,0,0,0,0,0,0,0,0,0,0,0,0,0,0,0,0,0,0,0,0.0857,0.0856,0,0.081,0.0809,0.0808,0.0854,0.0856,0.0858,0.0859,0.0869,0.0867,0.0866,0,0,0,0,0,0,0,0,0,0,0,0,0,0.0993,0.099,0.0857,0.0856,0.0856,0.081,0.0809,0.0808,0.0854,0.0856,0.0858,0.086,0.0869,0.0868,0.0866,0,0,0,0,0,0,0,0,0,0,0,0,0,0.0938,0.0989,0.0857,0.0873,0.0874,0.081,0.0809,0.0808,0.0853,0.0856,0.0859,0.0861,0.087,0.0868,0.0866,0.0798,0,0,0.0859,0.0858,0,0,0,0,0,0,0,0,0.0941,0.0933,0.0871,0.0872,0.0872,0.084,0.086,0.0808,0.0853,0.0861,0.0859,0.0863,0.0862,0.0861,0.0846,0.0799,0.0799,0.0859,0.0858,0.0857,0.0856,0,0,0,0,0,0,0,0.0945,0.0936,0.0838,0.087,0.0871,0.0884,0.088,0.085,0.0848,0.0861,0.0864,0.0857,0.0864,0.0847,0.0846,0.0799,0.0859,0.0857,0.0856,0.0855,0.0833,0.0834,0,0,0,0,0,0,0.0947,0.0938,0.084,0.0837,0.0914,0.088,0.0874,0.0848,0.0847,0.0849,0.0855,0.086,0.085,0.0849,0.0847,0.0889,0.0857,0.0855,0.0853,0.0832,0.0833,0.0834,0,0,0,0,0,0,0.0949,0.0937,0.0842,0.0889,0.0877,0.0874,0.0845,0.0846,0.0867,0.0843,0.0847,0.0881,0.0852,0.085,0.086,0.0886,0.0854,0.0852,0.0832,0.0833,0.0834,0.0896,0,0,0,0,0,0,0.0953,0.0938,0.0934,0.0887,0.0875,0.0821,0.0842,0.0843,0.0857,0.0864,0.0864,0.0866,0.0854,0.0863,0.0858,0.0882,0.085,0.0831,0.0832,0.0833,0.0893,0.0899,0.0904,0,0,0,0,0,0.0958,0.093,0.0933,0.0923,0.0863,0.082,0.0815,0.0823,0.0856,0.0856,0.0874,0.0868,0.0868,0.0861,0.0855,0.088,0.083,0.0832,0.0833,0.089,0.0898,0.0904,0,0,0,0,0,0,0.0987,0.093,0.0934,0.0892,0.087,0.0829,0.0828,0.0838,0.0847,0.0873,0.0866,0.0866,0.0887,0.0868,0.0861,0.0878,0.0852,0.0852,0.0898,0.0904,0.091,0.0917,0.0848,0,0,0,0,0,0.0989,0.0957,0.0914,0.0886,0.0876,0.0862,0.0854,0.086,0.0853,0.0863,0.0869,0.0877,0.0876,0.0883,0.0872,0.087,0.0872,0.0885,0.0891,0.0896,0.0897,0.0927,0.0936,0.0839,0.0839,0.0839,0,0,0.0995,0.096,0.0945,0.0892,0.0879,0.0857,0.0865,0.0857,0.086,0.0859,0.0884,0.0893,0.0879,0.0889,0.0897,0.0886,0.0926,0.0898,0.0902,0.0901,0.093,0.0939,0.0948,0.084,0.084,0.084,0,0,0.0982,0.096,0.0933,0.0912,0.0891,0.0875,0.0882,0.0865,0.0884,0.0894,0.0907,0.0934,0.0926,0.0927,0.0924,0.0948,0.0953,0.0956,0.0992,0.1021,0.103,0.1037,0.1063,0.1072,0.0962,0.0962,0.0962,0,0.1003,0.0953,0.0923,0.0895,0.0887,0.0889,0.0875,0.0874,0.0874,0.0895,0.0917,0.0944,0.094,0.0953,0.0976,0.0961,0.0984,0.0969,0.103,0.1038,0.1044,0.1068,0.1078,0.0965,0.0965,0.0964,0.0964,0,0.0961,0.0941,0.0925,0.089,0.0876,0.0866,0.0856,0.0875,0.0913,0.0923,0.0968,0.0974,0.1,0.1005,0.1001,0.1046,0.105,0.1034,0.1017,0.1058,0.108,0.1089,0.097,0.0968,0.0967,0.0967,0,0,0.0967,0.091,0.0912,0.0904,0.0881,0.0862,0.0876,0.0883,0.0914,0.0947,0.0991,0.1011,0.1051,0.105,0.1059,0.1087,0.1161,0.1096,0.1096,0.1127,0.1241,0.1235,0.1243,0.1171,0.1173,0.1174,0.1243,0,0.0959,0.0913,0.089,0.0873,0.0854,0.0862,0.0871,0.0888,0.0925,0.0968,0.1005,0.1047,0.1056,0.1096,0.1127,0.1149,0.1186,0.1144,0.1191,0.1192,0.1186,0.1253,0.1045,0.1088,0.1251,0.1252,0.1253,0,0.0934,0.0906,0.0891,0.0869,0.0866,0.0874,0.0907,0.0911,0.0963,0.1001,0.1061,0.1094,0.1152,0.1154,0.1226,0.1209,0.124,0.1251,0.1254,0.1229,0.1201,0.107,0.1098,0.1267,0.1266,0.1265,0.1264,0,0.0947,0.0909,0.0907,0.0898,0.0877,0.0905,0.0912,0.0949,0.0964,0.1043,0.1082,0.1147,0.1198,0.1245,0.1295,0.1277,0.1368,0.1335,0.135,0.135,0.117,0.1151,0.139,0.1389,0.1389,0.1389,0.1389,0,0.0935,0.0929,0.0927,0.0923,0.094,0.0928,0.097,0.0989,0.1029,0.1061,0.1119,0.1161,0.1231,0.1289,0.132,0.1378,0.1396,0.1375,0.1375,0.1187,0.1169,0.1312,0.1302,0.1392,0.1391,0.1391,0.139,0,0.0935,0.0934,0.0928,0.0935,0.0948,0.0968,0.0989,0.1006,0.1055,0.1103,0.1136,0.1195,0.1286,0.1342,0.1418,0.1412,0.1456,0.1468,0.1248,0.1223,0.1409,0.1401,0.1489,0.1489,0.149,0.149,0.149,0,0.0915,0.0919,0.0947,0.0962,0.0978,0.1005,0.1019,0.1037,0.1049,0.1118,0.1135,0.1239,0.1301,0.1404,0.1378,0.1427,0.1505,0.1305,0.1228,0.1431,0.1423,0.1415,0.1407,0.101,0.1006,0.1003,0.1001,0,0.0872,0.0913,0.0912,0.0957,0.0989,0.1009,0.1034,0.1036,0.1066,0.1108,0.117,0.1227,0.1278,0.1228,0.1286,0.1278,0.128,0.1249,0.1516,0.103,0.0989,0.0978,0.0984,0.0974,0.0977,0.0979,0.098,0.0981,0.0848,0.0851,0.088,0.0927,0.0975,0.1018,0.1016,0.1029,0.1052,0.1091,0.1164,0.1178,0.1134,0.1106,0.1097,0.1058,0.1138,0.1089,0.1094,0.1103,0.1049,0.1012,0.0991,0.0993,0.0996,0.0998,0.0999,0,0.0779,0.0804,0.0834,0.0886,0.0935,0.1,0.1016,0.0997,0.101,0.1038,0.1102,0.0965,0.0914,0.0906,0.0754,0.076,0.0699,0.0787,0.0673,0.0697,0.0719,0.0643,0.0479,0.0479,0.0479,0.0478,0,0,0.0733,0.0731,0.0759,0.0828,0.0906,0.0967,0.0987,0.0961,0.0939,0.0901,0.0859,0.0927,0.0851,0.0673,0.0625,0.0542,0.0634,0.0519,0.0913,0.0801,0.0824,0.0849,0.0754,0,0,0,0,0]},{"header":{"parameterUnit":"m.s-1","parameterCategory":2,"la1":30.2991,"la2":30.254,"lo1":-89.0895,"lo2":-89.0444,"dy":0.0017,"dx":0.0017,"nx":28,"ny":28,"refTime":"2024-06-15T09:00:00:Z","depth":"2","parameterNumber":3,"parameterNumberName":"V-component_of_CURRENTS"},"data":[0,0,0,0,0,0,0,0,0,0,0,0,0,0,0,0,0,0,0,0,0,0,0,0,0,0,0,0,0,0,0,0,0,0,0,0,0,0,0,0,0,0,0,0,0,0,0,0,0,0,0,0,0,0,0,0,0,0,-0.0017,-0.0017,0,-0.0031,-0.0031,-0.0031,-0.007,-0.0071,-0.0072,-0.0072,-0.0131,-0.0131,-0.0132,0,0,0,0,0,0,0,0,0,0,0,0,0,-0.0013,-0.0013,-0.0017,-0.0017,-0.0018,-0.0031,-0.0031,-0.0031,-0.007,-0.0071,-0.0072,-0.0073,-0.013,-0.0131,-0.0132,0,0,0,0,0,0,0,0,0,0,0,0,0,-0.0019,-0.0013,-0.0017,-0.0039,-0.0041,-0.0031,-0.0031,-0.0031,-0.0069,-0.0071,-0.0072,-0.0073,-0.013,-0.0131,-0.0132,-0.0113,0,0,-0.0136,-0.0136,0,0,0,0,0,0,0,0,-0.0019,-0.0019,-0.0035,-0.0037,-0.004,-0.005,-0.0051,-0.0061,-0.0069,-0.0058,-0.0072,-0.0074,-0.0107,-0.011,-0.0109,-0.0115,-0.0118,-0.0136,-0.0136,-0.0137,-0.0137,0,0,0,0,0,0,0,-0.0018,-0.0019,-0.0022,-0.0035,-0.0038,-0.0044,-0.0046,-0.0053,-0.0076,-0.0059,-0.0062,-0.0064,-0.0109,-0.0107,-0.011,-0.0119,-0.0136,-0.0137,-0.0137,-0.0138,-0.0182,-0.0182,0,0,0,0,0,0,-0.0016,-0.0018,-0.0022,-0.0023,-0.0033,-0.0043,-0.0046,-0.0045,-0.0075,-0.008,-0.0063,-0.0066,-0.0105,-0.0109,-0.0113,-0.0136,-0.0137,-0.0138,-0.0138,-0.0181,-0.0182,-0.0182,0,0,0,0,0,0,-0.0016,-0.0016,-0.0021,-0.0021,-0.0023,-0.0042,-0.0041,-0.0045,-0.0063,-0.0077,-0.0084,-0.0079,-0.0106,-0.0111,-0.0133,-0.0137,-0.0138,-0.0139,-0.0181,-0.0181,-0.0182,-0.0154,0,0,0,0,0,0,-0.0016,-0.0016,-0.0024,-0.0021,-0.0022,-0.0022,-0.004,-0.0044,-0.0061,-0.0066,-0.0093,-0.0099,-0.0108,-0.0131,-0.0134,-0.0139,-0.014,-0.018,-0.0181,-0.0182,-0.0154,-0.0154,-0.0153,0,0,0,0,0,-0.0016,-0.002,-0.0024,-0.0025,-0.003,-0.0022,-0.0023,-0.0041,-0.0061,-0.0064,-0.0087,-0.0099,-0.014,-0.0132,-0.0135,-0.014,-0.0179,-0.0181,-0.0182,-0.0154,-0.0154,-0.0153,0,0,0,0,0,0,-0.0027,-0.0024,-0.0029,-0.0034,-0.0031,-0.0029,-0.004,-0.0048,-0.0066,-0.0082,-0.0098,-0.0104,-0.0125,-0.0139,-0.013,-0.0158,-0.0164,-0.0166,-0.0142,-0.0142,-0.0141,-0.0131,-0.0141,0,0,0,0,0,-0.003,-0.0032,-0.0026,-0.0032,-0.0033,-0.0038,-0.0043,-0.0051,-0.0062,-0.0073,-0.009,-0.0114,-0.0127,-0.0141,-0.0153,-0.0165,-0.0172,-0.0174,-0.0174,-0.0173,-0.0169,-0.0184,-0.0183,-0.0186,-0.0186,-0.0186,0,0,-0.0037,-0.0036,-0.0039,-0.0035,-0.0039,-0.0032,-0.0045,-0.0053,-0.0051,-0.0075,-0.0092,-0.011,-0.013,-0.0142,-0.0154,-0.0158,-0.0176,-0.0175,-0.0174,-0.017,-0.0185,-0.0184,-0.0184,-0.0187,-0.0187,-0.0187,0,0,-0.0043,-0.0051,-0.0051,-0.0045,-0.0048,-0.0043,-0.0048,-0.0051,-0.0061,-0.007,-0.0089,-0.0108,-0.0133,-0.014,-0.0149,-0.0154,-0.017,-0.017,-0.016,-0.0174,-0.0174,-0.0173,-0.0174,-0.0174,-0.0173,-0.0173,-0.0173,0,-0.0052,-0.0049,-0.005,-0.0044,-0.0042,-0.0049,-0.0042,-0.0044,-0.0054,-0.0057,-0.0078,-0.0109,-0.0127,-0.0133,-0.014,-0.015,-0.0162,-0.0157,-0.0172,-0.0171,-0.0171,-0.0173,-0.0173,-0.0171,-0.0172,-0.0172,-0.0172,0,-0.005,-0.005,-0.0051,-0.0041,-0.0036,-0.0035,-0.0029,-0.0033,-0.0048,-0.0048,-0.0066,-0.0088,-0.0109,-0.0119,-0.0132,-0.0143,-0.0151,-0.0165,-0.0168,-0.0169,-0.0171,-0.0171,-0.017,-0.017,-0.017,-0.0171,0,0,-0.0062,-0.005,-0.0053,-0.0044,-0.0036,-0.0027,-0.0022,-0.0012,-0.0009,-0.003,-0.0027,-0.0057,-0.0078,-0.009,-0.0111,-0.0124,-0.0132,-0.0148,-0.015,-0.0139,-0.016,-0.0108,-0.0104,-0.0155,-0.0155,-0.0155,-0.0158,0,-0.006,-0.0049,-0.0041,-0.0026,-0.0017,-0.0012,-0.0001,0.0006,0.0002,0.0004,-0.002,-0.0031,-0.0064,-0.0081,-0.0099,-0.0118,-0.0135,-0.013,-0.017,-0.017,-0.0115,-0.0103,-0.009,-0.0086,-0.0158,-0.0159,-0.0159,0,-0.0059,-0.0049,-0.004,-0.0011,-0.0007,-0.0002,0.0017,0.0027,0.0034,0.0028,0.0011,-0.0005,-0.0022,-0.0057,-0.0094,-0.0094,-0.0131,-0.0148,-0.0149,-0.011,-0.0119,-0.01,-0.0085,-0.016,-0.016,-0.016,-0.016,0,-0.0062,-0.0043,-0.0037,-0.003,-0.0003,-0.0002,0.0009,0.0023,0.0039,0.0037,0.0046,0.0019,0.0008,-0.004,-0.0076,-0.0096,-0.0108,-0.0139,-0.0125,-0.0122,-0.0121,-0.0116,-0.0176,-0.0176,-0.0176,-0.0176,-0.0176,0,-0.0055,-0.0044,-0.0044,-0.0038,-0.0023,-0.0008,0.0007,0.0018,0.0038,0.0064,0.0046,0.0069,0.0008,-0.0001,-0.0056,-0.0073,-0.0097,-0.0112,-0.0117,-0.0109,-0.0104,-0.0181,-0.0181,-0.0176,-0.0176,-0.0176,-0.0176,0,-0.0047,-0.005,-0.0038,-0.0029,-0.0027,-0.002,0.0008,0.0028,0.0042,0.0076,0.0076,0.0103,0.0105,0.0061,0.0009,-0.003,-0.0063,-0.0073,-0.0046,-0.0046,-0.0077,-0.0077,-0.0059,-0.0057,-0.0056,-0.0054,-0.0053,0,-0.0033,-0.0035,-0.0041,-0.0039,-0.0038,-0.0026,-0.001,0.0015,0.0045,0.0107,0.0133,0.0158,0.0216,0.0191,0.012,0.0064,-0.0001,0.0013,-0.0019,-0.0058,-0.0064,-0.0066,-0.0068,-0.0013,-0.0011,-0.001,-0.0009,0,0.0,-0.0022,-0.0016,-0.0027,-0.0023,-0.0003,0.002,0.0054,0.0096,0.0152,0.0241,0.0304,0.0311,0.0292,0.0223,0.0176,0.0029,0.0036,-0.0018,-0.0031,-0.0011,-0.0018,-0.0022,0.0001,-0.0,-0.0001,-0.0002,-0.0002,0.0025,0.0024,0.001,0.001,0.0004,0.0026,0.0067,0.0125,0.0203,0.0317,0.0337,0.0439,0.0386,0.0353,0.0265,0.0149,0.0147,0.0069,0.0063,0.0057,0.0076,0.01,0.0135,0.0135,0.0135,0.0135,0.0135,0,0.0086,0.0069,0.0059,0.0056,0.0058,0.0039,0.0101,0.0176,0.0301,0.0393,0.0496,0.0473,0.047,0.0379,0.0231,0.0161,0.0133,0.0114,0.0064,0.0057,0.005,0.0066,0.0124,0.0123,0.0123,0.0122,0,0,0.0122,0.0132,0.0119,0.0122,0.0102,0.0131,0.0176,0.0298,0.0391,0.0529,0.0577,0.0645,0.0527,0.0398,0.0291,0.0192,0.0145,0.0188,0.0211,0.0161,0.0155,0.0047,0.0068,0,0,0,0,0]}],[{"header":{"parameterUnit":"m.s-1","parameterCategory":2,"la1":30.2991,"la2":30.254,"lo1":-89.0895,"lo2":-89.0444,"dy":0.0017,"dx":0.0017,"nx":28,"ny":28,"refTime":"2024-06-15T09:00:00:Z","depth":"4","parameterNumber":2,"parameterNumberName":"U-component_of_CURRENTS"},"data":[0,0,0,0,0,0,0,0,0,0,0,0,0,0,0,0,0,0,0,0,0,0,0,0,0,0,0,0,0,0,0,0,0,0,0,0,0,0,0,0,0,0,0,0,0,0,0,0,0,0,0,0,0,0,0,0,0,0,-0.0318,-0.0318,0,-0.0337,-0.0337,-0.0337,-0.0349,-0.0349,-0.0349,-0.0349,-0.042,-0.0422,-0.0424,0,0,0,0,0,0,0,0,0,0,0,0,0,-0.0303,-0.0303,-0.0318,-0.0318,-0.0319,-0.0337,-0.0337,-0.0337,-0.0349,-0.0349,-0.0349,-0.0349,-0.042,-0.0422,-0.0424,0,0,0,0,0,0,0,0,0,0,0,0,0,-0.0314,-0.0303,-0.0318,-0.0327,-0.0328,-0.0337,-0.0337,-0.0337,-0.0349,-0.0349,-0.0349,-0.0349,-0.0419,-0.0422,-0.0424,-0.0438,0,0,-0.0433,-0.0434,0,0,0,0,0,0,0,0,-0.0313,-0.0314,-0.0325,-0.0326,-0.0328,-0.0341,-0.0358,-0.0374,-0.0349,-0.034,-0.0349,-0.0349,-0.0399,-0.0403,-0.0405,-0.0441,-0.0444,-0.0433,-0.0435,-0.0436,-0.0436,0,0,0,0,0,0,0,-0.0313,-0.0314,-0.0325,-0.0326,-0.0327,-0.0334,-0.0335,-0.0361,-0.0369,-0.0341,-0.0342,-0.0345,-0.04,-0.0402,-0.0407,-0.0445,-0.0433,-0.0435,-0.0437,-0.0438,-0.0559,-0.056,0,0,0,0,0,0,-0.0311,-0.0313,-0.0324,-0.0325,-0.0321,-0.0334,-0.0336,-0.0336,-0.0368,-0.0372,-0.0345,-0.0345,-0.0398,-0.0404,-0.041,-0.0459,-0.0436,-0.0438,-0.044,-0.0557,-0.0559,-0.0561,0,0,0,0,0,0,-0.031,-0.0311,-0.0324,-0.032,-0.0322,-0.0334,-0.0334,-0.0336,-0.0352,-0.037,-0.0376,-0.036,-0.0398,-0.0406,-0.0447,-0.0461,-0.0439,-0.0442,-0.0555,-0.0558,-0.056,-0.0539,0,0,0,0,0,0,-0.031,-0.0311,-0.0314,-0.032,-0.0323,-0.0338,-0.0334,-0.0337,-0.0353,-0.0355,-0.0385,-0.0391,-0.0399,-0.0443,-0.0449,-0.0465,-0.0444,-0.0553,-0.0557,-0.0559,-0.0538,-0.054,-0.0543,0,0,0,0,0,-0.0309,-0.0313,-0.0314,-0.0316,-0.0325,-0.0339,-0.0341,-0.0349,-0.0354,-0.0364,-0.0387,-0.0391,-0.0467,-0.0446,-0.0453,-0.047,-0.0552,-0.0556,-0.0559,-0.0537,-0.054,-0.0543,0,0,0,0,0,0,-0.0314,-0.0315,-0.0316,-0.0322,-0.0334,-0.0341,-0.035,-0.0358,-0.0382,-0.0389,-0.0405,-0.0413,-0.0454,-0.0474,-0.045,-0.0518,-0.0513,-0.0518,-0.0493,-0.0497,-0.0499,-0.0445,-0.0446,0,0,0,0,0,-0.0315,-0.032,-0.0323,-0.0334,-0.0335,-0.0346,-0.0354,-0.0362,-0.0381,-0.0392,-0.0411,-0.0442,-0.0473,-0.0493,-0.0521,-0.0557,-0.0535,-0.0577,-0.058,-0.0581,-0.0546,-0.0541,-0.0538,-0.0573,-0.0573,-0.0573,0,0,-0.0322,-0.0324,-0.0328,-0.0335,-0.0343,-0.0352,-0.0352,-0.0369,-0.0385,-0.0398,-0.0428,-0.045,-0.0486,-0.0521,-0.0543,-0.054,-0.0564,-0.0586,-0.0587,-0.0549,-0.0544,-0.054,-0.0536,-0.0575,-0.0575,-0.0574,0,0,-0.0337,-0.0338,-0.0343,-0.035,-0.0363,-0.0369,-0.0377,-0.0389,-0.0401,-0.0426,-0.0447,-0.0476,-0.0518,-0.0544,-0.0563,-0.0602,-0.0576,-0.0622,-0.0588,-0.0585,-0.058,-0.0576,-0.0543,-0.0536,-0.0624,-0.0624,-0.0624,0,-0.0343,-0.0345,-0.035,-0.0357,-0.0357,-0.0377,-0.038,-0.0402,-0.043,-0.0432,-0.0436,-0.0484,-0.0524,-0.056,-0.0566,-0.0604,-0.0576,-0.0569,-0.0582,-0.0578,-0.0574,-0.0541,-0.0533,-0.0624,-0.0624,-0.0624,-0.0624,0,-0.0354,-0.0358,-0.0364,-0.0372,-0.038,-0.0388,-0.0406,-0.0423,-0.0432,-0.044,-0.0464,-0.0501,-0.0509,-0.0553,-0.0562,-0.0568,-0.0549,-0.0581,-0.056,-0.0568,-0.0535,-0.0527,-0.0623,-0.0623,-0.0623,-0.0624,0,0,-0.035,-0.0363,-0.0365,-0.0356,-0.038,-0.0378,-0.0411,-0.0419,-0.0417,-0.0447,-0.0432,-0.0492,-0.0474,-0.0493,-0.0525,-0.0533,-0.0493,-0.0526,-0.0526,-0.0466,-0.0442,-0.0455,-0.0448,-0.0513,-0.0512,-0.0511,-0.0429,0,-0.0349,-0.0349,-0.036,-0.036,-0.0352,-0.037,-0.0384,-0.0403,-0.0413,-0.041,-0.0445,-0.0438,-0.0467,-0.0447,-0.0461,-0.0489,-0.047,-0.0509,-0.0466,-0.0464,-0.0453,-0.044,-0.0507,-0.0423,-0.0421,-0.042,-0.0419,0,-0.0344,-0.034,-0.033,-0.032,-0.0316,-0.0312,-0.0304,-0.0317,-0.0336,-0.0334,-0.033,-0.0344,-0.035,-0.037,-0.0378,-0.039,-0.0384,-0.0411,-0.041,-0.0413,-0.0463,-0.0419,-0.0404,-0.0406,-0.0407,-0.0408,-0.0408,0,-0.0315,-0.0314,-0.0294,-0.0293,-0.0294,-0.0273,-0.026,-0.0276,-0.0278,-0.0252,-0.0243,-0.025,-0.0244,-0.0247,-0.0311,-0.0306,-0.0331,-0.0342,-0.0345,-0.0346,-0.0364,-0.037,-0.031,-0.031,-0.031,-0.0311,-0.0311,0,-0.0294,-0.0289,-0.0263,-0.0252,-0.0208,-0.0209,-0.0169,-0.0166,-0.0162,-0.0176,-0.0167,-0.02,-0.0207,-0.025,-0.0274,-0.0298,-0.0294,-0.0307,-0.0322,-0.0361,-0.0367,-0.0358,-0.0364,-0.0307,-0.0308,-0.0309,-0.0309,0,-0.0285,-0.0275,-0.0252,-0.0218,-0.0193,-0.0151,-0.0108,-0.0096,-0.0078,-0.0095,-0.0074,-0.0129,-0.0162,-0.0208,-0.024,-0.0253,-0.0281,-0.0292,-0.0317,-0.034,-0.0283,-0.029,-0.0211,-0.0211,-0.021,-0.021,-0.021,0,-0.0282,-0.0268,-0.0221,-0.0189,-0.0164,-0.01,-0.0074,-0.0044,-0.006,-0.0099,-0.0133,-0.0143,-0.0188,-0.0213,-0.0276,-0.0271,-0.0294,-0.0261,-0.0255,-0.0248,-0.0271,-0.0279,-0.0286,-0.021,-0.021,-0.021,-0.0209,0,-0.0286,-0.0274,-0.0253,-0.018,-0.0127,-0.0095,-0.0062,-0.0061,-0.0072,-0.0067,-0.0122,-0.0131,-0.0185,-0.0213,-0.0215,-0.0246,-0.0253,-0.0257,-0.0256,-0.025,-0.0246,-0.027,-0.0278,-0.0209,-0.0209,-0.0209,-0.0209,0,-0.0295,-0.0278,-0.0241,-0.0167,-0.013,-0.0115,-0.0081,-0.0084,-0.0073,-0.0108,-0.0153,-0.0186,-0.0205,-0.0208,-0.0259,-0.0238,-0.0205,-0.0166,-0.0169,-0.0171,-0.0208,-0.02,-0.0133,0,0,0,0,0,-0.0295,-0.0272,-0.0227,-0.0163,-0.0142,-0.0122,-0.011,-0.0097,-0.0113,-0.0122,-0.0114,-0.016,-0.0168,-0.0216,-0.0181,-0.0272,-0.0236,-0.0235,-0.0199,-0.0204,-0.0205,-0.026,0,0,0,0,0,0,-0.0292,-0.0271,-0.0234,-0.0189,-0.016,-0.0143,-0.0141,-0.0144,-0.0148,-0.0153,-0.0156,-0.0138,-0.016,-0.0173,-0.0178,-0.0185,-0.0151,-0.0245,-0.0243,-0.0203,-0.0204,-0.0205,-0.0262,0,0,0,0,0]},{"header":{"parameterUnit":"m.s-1","parameterCategory":2,"la1":30.2991,"la2":30.254,"lo1":-89.0895,"lo2":-89.0444,"dy":0.0017,"dx":0.0017,"nx":28,"ny":28,"refTime":"2024-06-15T09:00:00:Z","depth":"4","parameterNumber":3,"parameterNumberName":"V-component_of_CURRENTS"},"data":[0,0,0,0,0,0,0,0,0,0,0,0,0,0,0,0,0,0,0,0,0,0,0,0,0,0,0,0,0,0,0,0,0,0,0,0,0,0,0,0,0,0,0,0,0,0,0,0,0,0,0,0,0,0,0,0,0,0,0.0488,0.0488,0,0.0487,0.0487,0.0487,0.0532,0.0533,0.0535,0.0536,0.0657,0.0659,0.0661,0,0,0,0,0,0,0,0,0,0,0,0,0,0.0474,0.0475,0.0488,0.0488,0.0488,0.0487,0.0487,0.0487,0.0532,0.0533,0.0535,0.0536,0.0657,0.0659,0.0662,0,0,0,0,0,0,0,0,0,0,0,0,0,0.0478,0.0475,0.0488,0.051,0.0512,0.0487,0.0487,0.0487,0.0532,0.0534,0.0535,0.0537,0.0656,0.0659,0.0662,0.0646,0,0,0.0672,0.0673,0,0,0,0,0,0,0,0,0.0478,0.0478,0.0507,0.0509,0.0511,0.0512,0.0527,0.0546,0.0531,0.0524,0.0536,0.0538,0.0619,0.0625,0.0619,0.0652,0.0657,0.0672,0.0674,0.0675,0.0676,0,0,0,0,0,0,0,0.0477,0.0478,0.0488,0.0507,0.0509,0.0502,0.0505,0.053,0.0564,0.0525,0.0528,0.0528,0.0621,0.0616,0.0623,0.0659,0.0672,0.0675,0.0677,0.0678,0.0791,0.0792,0,0,0,0,0,0,0.0478,0.0478,0.0488,0.0488,0.0498,0.0501,0.0504,0.051,0.0561,0.0569,0.0526,0.053,0.0609,0.0619,0.0627,0.0675,0.0675,0.0678,0.068,0.079,0.0791,0.0792,0,0,0,0,0,0,0.0478,0.0479,0.0488,0.0483,0.0483,0.05,0.0505,0.0509,0.0543,0.056,0.0572,0.0562,0.0611,0.0623,0.0681,0.0678,0.068,0.0683,0.0788,0.079,0.0792,0.073,0,0,0,0,0,0,0.0478,0.0479,0.0488,0.0483,0.0484,0.049,0.0504,0.0507,0.0537,0.0543,0.0594,0.0604,0.0613,0.0676,0.0684,0.0683,0.0685,0.0787,0.0789,0.0791,0.0731,0.073,0.0729,0,0,0,0,0,0.0477,0.0473,0.0488,0.0489,0.0494,0.049,0.049,0.0507,0.0538,0.0547,0.0591,0.0605,0.0695,0.068,0.0689,0.0688,0.0786,0.0789,0.0791,0.0732,0.073,0.0729,0,0,0,0,0,0,0.047,0.0477,0.0494,0.0494,0.0503,0.0498,0.0504,0.0526,0.0564,0.0594,0.0617,0.063,0.0676,0.0703,0.0685,0.0731,0.0744,0.0748,0.0695,0.0694,0.0693,0.0653,0.0688,0,0,0,0,0,0.0471,0.0482,0.0484,0.0492,0.0494,0.0511,0.0516,0.054,0.0567,0.0587,0.0628,0.0671,0.0683,0.0709,0.0736,0.0765,0.0762,0.0775,0.0773,0.0772,0.0749,0.0737,0.073,0.08,0.08,0.08,0,0,0.047,0.048,0.0485,0.0493,0.0502,0.0506,0.052,0.0546,0.0559,0.0596,0.0648,0.0674,0.0693,0.0715,0.0739,0.0743,0.0757,0.0775,0.0773,0.0751,0.0738,0.0731,0.0724,0.0802,0.0802,0.0801,0,0,0.0474,0.0484,0.0495,0.0506,0.0532,0.0528,0.0546,0.0575,0.0595,0.0639,0.0659,0.0684,0.0741,0.0727,0.0728,0.0743,0.0751,0.0772,0.0728,0.0717,0.0709,0.0703,0.0703,0.0697,0.077,0.077,0.077,0,0.0474,0.0493,0.0497,0.0515,0.0518,0.0543,0.0553,0.0563,0.0617,0.0615,0.0664,0.0697,0.0729,0.0695,0.0699,0.0733,0.0736,0.0723,0.0709,0.0703,0.0697,0.0699,0.0693,0.0767,0.0768,0.0768,0.0768,0,0.0485,0.0511,0.0517,0.0542,0.0539,0.056,0.0563,0.0582,0.0618,0.0623,0.0635,0.0667,0.0676,0.0692,0.0698,0.0666,0.0685,0.0704,0.0698,0.0685,0.069,0.0684,0.0764,0.0765,0.0765,0.0766,0,0,0.0469,0.0512,0.0527,0.0537,0.0563,0.0556,0.0558,0.0539,0.0526,0.0582,0.0556,0.0578,0.0596,0.0598,0.0613,0.06,0.0573,0.0633,0.0633,0.0606,0.0553,0.0501,0.049,0.0586,0.0585,0.0584,0.0576,0,0.0483,0.0525,0.0532,0.0552,0.056,0.0557,0.0539,0.0531,0.053,0.0516,0.0519,0.0526,0.0558,0.057,0.0553,0.0563,0.0555,0.0573,0.0593,0.0593,0.0525,0.048,0.0579,0.0572,0.0571,0.057,0.0569,0,0.0492,0.0523,0.056,0.0546,0.0543,0.0559,0.051,0.05,0.046,0.046,0.0445,0.0454,0.043,0.0482,0.0464,0.0476,0.0508,0.0522,0.0523,0.0482,0.0529,0.059,0.056,0.0561,0.0561,0.0562,0.0562,0,0.0483,0.0521,0.0551,0.0563,0.0562,0.0566,0.0551,0.0508,0.0477,0.0444,0.0424,0.0392,0.0402,0.0405,0.0434,0.0454,0.0418,0.0458,0.0437,0.0436,0.0513,0.052,0.0449,0.0449,0.0449,0.0449,0.0449,0,0.0472,0.0499,0.057,0.0595,0.0603,0.0589,0.0569,0.054,0.0489,0.0425,0.0419,0.0352,0.0386,0.0364,0.0395,0.0378,0.0394,0.0401,0.0413,0.0495,0.0499,0.051,0.0517,0.0449,0.0449,0.0449,0.0449,0,0.0458,0.0507,0.0553,0.06,0.0616,0.0632,0.0611,0.0566,0.0531,0.0448,0.0441,0.0344,0.0286,0.031,0.0312,0.0335,0.0332,0.0338,0.0413,0.0435,0.0373,0.0378,0.0296,0.0294,0.0292,0.029,0.0289,0,0.0438,0.0479,0.0589,0.0627,0.067,0.0691,0.0676,0.0621,0.0542,0.0409,0.0336,0.0274,0.0215,0.0166,0.019,0.0231,0.0256,0.0286,0.0324,0.0328,0.0349,0.0357,0.0364,0.0286,0.0285,0.0285,0.0284,0,0.0411,0.0495,0.0542,0.0655,0.069,0.0673,0.064,0.0548,0.0426,0.043,0.0243,0.0199,0.0117,0.0093,0.0142,0.0168,0.0271,0.0267,0.0272,0.0307,0.0315,0.0339,0.0349,0.0277,0.0278,0.0279,0.0279,0,0.04,0.0448,0.0559,0.0627,0.0701,0.0634,0.0582,0.0462,0.0376,0.0213,0.0148,0.0077,0.0067,0.0055,0.0067,0.0107,0.0127,0.0186,0.0197,0.0205,0.0179,0.0176,0.0076,0,0,0,0,0,0.0385,0.0435,0.0505,0.0572,0.0655,0.0692,0.0549,0.0456,0.0318,0.0197,0.0171,0.0089,0.0056,0.0006,0.0033,0.0023,0.013,0.0057,0.0203,0.024,0.0247,0.0228,0,0,0,0,0,0,0.0363,0.0453,0.0487,0.0544,0.0603,0.0624,0.0529,0.04,0.0286,0.0189,0.0149,0.0191,0.0136,0.0115,0.0092,0.009,0.0195,0.0063,0.0065,0.0235,0.0242,0.0249,0.0231,0,0,0,0,0]}]]